Printer-friendly version

IAU Minor Planet Center

Minor Planet Center

MPEC 2009-J25 : 2009 JE1

The following Minor Planet Electronic Circular may be linked-to from your own Web pages, but must not otherwise be redistributed electronically.


Read MPEC 2009-J24 Read MPEC 2009-J26


M.P.E.C. 2009-J25                                Issued 2009 May 5, 17:54 UT

     The Minor Planet Electronic Circulars contain information on unusual
         minor planets and routine data on comets.  They are published
   on behalf of Commission 20 of the International Astronomical Union by the
          Minor Planet Center, Smithsonian Astrophysical Observatory,
                          Cambridge, MA 02138, U.S.A.

             Prepared using the Tamkin Foundation Computer Network

                              MPC@CFA.HARVARD.EDU
          URL http://www.cfa.harvard.edu/iau/mpc.html  ISSN 1523-6714

                                   2009 JE1

Observations:
     K09J01E* C2009 05 04.36574 15 22 58.47 -07 00 19.9          19.9 V EJ025G96
     K09J01E  C2009 05 04.37332 15 23 02.11 -07 02 30.4          19.9 V EJ025G96
     K09J01E  C2009 05 04.38087 15 23 05.74 -07 04 42.4          20.0 V EJ025G96
     K09J01E  C2009 05 04.41854 15 23 24.25 -07 15 39.2          20.1 V EJ025G96
     K09J01E  C2009 05 04.42134 15 23 25.62 -07 16 27.6          19.6 V EJ025G96
     K09J01E  C2009 05 04.42423 15 23 27.02 -07 17 15.6          20.7 V EJ025G96
     K09J01E  C2009 05 04.43167 15 23 30.87 -07 19 29.8          19.7 V EJ025G96
     K09J01E  C2009 05 04.43249 15 23 31.30 -07 19 44.2          19.6 V EJ025G96
     K09J01E  C2009 05 04.43329 15 23 31.65 -07 19 56.9          19.2 V EJ025G96
     K09J01E  C2009 05 04.43411 15 23 32.06 -07 20 11.5          19.6 V EJ025G96

Observer details:
G96 Mt. Lemmon Survey.  Observer A. D. Grauer.  Measurers E. C. Beshore,
    A. Boattini, G. J. Garradd, A. R. Gibbs, A. D. Grauer, R. E. Hill,
    R. A. Kowalski, S. M. Larson, R. H. McNaught.  1.5-m reflector + CCD.

Orbital elements:
2009 JE1                                                 Earth MOID = 0.0101 AU
Epoch 2009 June 18.0 TT = JDT 2455000.5                 MPC
M 359.09419              (2000.0)            P               Q
n   0.58848908     Peri.  233.12342     +0.15117350     +0.98231366
a   1.4102966      Node    45.96768     -0.85099983     +0.18619440
e   0.3464025      Incl.    8.83984     -0.50293723     -0.01978699
P   1.67           H   26.8           G   0.15           U   9
Residuals in seconds of arc
090504 G96  0.1-  0.0     090504 G96  0.1-  0.2-    090504 G96  0.2-  0.4+
090504 G96  0.1+  0.5+    090504 G96  0.9-  2.5+    090504 G96  0.3-  0.3+
090504 G96  0.1+  0.7-    090504 G96  0.4+  1.0-
090504 G96  0.4+  0.9-    090504 G96  0.6+  1.0-

Ephemeris:
2009 JE1                 a,e,i = 1.41, 0.35, 9                   q = 0.9218
Date    TT    R. A. (2000) Decl.     Delta      r     Elong.  Phase     V
2009 04 29    14 56.97   +05 47.7    0.0565   1.060   158.3    20.5    21.7
2009 04 30    14 59.63   +04 32.4    0.0510   1.055   159.3    19.7    21.4
2009 05 01    15 02.90   +02 57.9    0.0455   1.051   160.5    18.6    21.2
2009 05 02    15 07.03   +00 56.9    0.0402   1.046   162.1    17.2    20.8
2009 05 03    15 12.40   -01 42.3    0.0349   1.042   164.0    15.4    20.4
2009 05 04    15 19.68   -05 18.1    0.0297   1.037   166.3    13.3    20.0
2009 05 05    15 30.07   -10 21.9    0.0248   1.033   168.3    11.4    19.5
2009 05 06    15 46.01   -17 46.8    0.0202   1.028   167.1    12.7    19.1
2009 05 07    16 13.15   -28 53.4    0.0163   1.024   158.5    21.2    19.0
2009 05 08    17 06.99   -44 33.3    0.0137   1.020   141.7    37.8    19.0
2009 05 09    19 09.54   -60 03.3    0.0131   1.016   119.0    60.3    19.6

Timothy B. Spahr             (C) Copyright 2009 MPC           M.P.E.C. 2009-J25

Read MPEC 2009-J24 Read MPEC 2009-J26


Our Web policy. Index to the CBAT/MPC/ICQ pages.


Valid HTML 4.01!